TimeCDT,TemperatureF,Dew PointF,Humidity,Sea Level PressureIn,VisibilityMPH,Wind Direction,Wind SpeedMPH,Gust SpeedMPH,PrecipitationIn,Events,Conditions,WindDirDegrees,DateUTC
12:14 AM,12.2,10.4,92,30.19,10.0,North,10.4,-,N/A,,Clear,350,2013-03-24 05:14:00
12:35 AM,12.2,10.4,92,30.19,10.0,North,6.9,-,N/A,,Mostly Cloudy,360,2013-03-24 05:35:00
12:55 AM,14.0,12.2,93,30.18,10.0,Calm,Calm,-,N/A,,Overcast,0,2013-03-24 05:55:00
1:14 AM,15.8,14.0,93,30.18,10.0,North,5.8,-,N/A,,Overcast,350,2013-03-24 06:14:00
1:35 AM,15.8,14.0,93,30.17,10.0,North,8.1,-,N/A,,Overcast,350,2013-03-24 06:35:00
1:55 AM,17.6,15.8,93,30.17,10.0,North,8.1,-,N/A,,Overcast,360,2013-03-24 06:55:00
2:35 AM,17.6,15.8,93,30.18,10.0,NNW,5.8,-,N/A,,Overcast,340,2013-03-24 07:35:00
2:55 AM,17.6,15.8,93,30.18,10.0,North,5.8,-,N/A,,Overcast,350,2013-03-24 07:55:00
3:14 AM,17.6,15.8,93,30.17,10.0,North,6.9,-,N/A,,Overcast,350,2013-03-24 08:14:00
3:35 AM,17.6,15.8,93,30.17,10.0,North,5.8,-,N/A,,Overcast,360,2013-03-24 08:35:00
3:54 AM,17.6,15.8,93,30.17,10.0,North,5.8,-,N/A,,Overcast,360,2013-03-24 08:54:00
4:14 AM,17.6,15.8,93,30.17,10.0,North,5.8,-,N/A,,Overcast,10,2013-03-24 09:14:00
4:35 AM,17.6,15.8,93,30.16,10.0,North,4.6,-,N/A,,Overcast,360,2013-03-24 09:35:00
4:54 AM,17.6,15.8,93,30.16,10.0,North,4.6,-,N/A,,Overcast,10,2013-03-24 09:54:00
5:14 AM,17.6,15.8,93,30.16,10.0,North,3.5,-,N/A,,Overcast,360,2013-03-24 10:14:00
5:35 AM,15.8,14.0,93,30.16,10.0,Calm,Calm,-,N/A,,Overcast,0,2013-03-24 10:35:00
5:54 AM,17.6,14.0,86,30.16,10.0,Calm,Calm,-,N/A,,Overcast,0,2013-03-24 10:54:00
6:14 AM,17.6,14.0,86,30.17,10.0,Calm,Calm,-,N/A,,Overcast,0,2013-03-24 11:14:00
6:35 AM,17.6,15.8,93,30.17,10.0,North,3.5,-,N/A,,Overcast,10,2013-03-24 11:35:00
6:54 AM,17.6,15.8,93,30.17,10.0,North,4.6,-,N/A,,Overcast,10,2013-03-24 11:54:00
7:14 AM,17.6,15.8,93,30.18,10.0,North,4.6,-,N/A,,Overcast,360,2013-03-24 12:14:00
7:35 AM,17.6,15.8,93,30.18,10.0,NNE,4.6,-,N/A,,Overcast,20,2013-03-24 12:35:00
7:54 AM,17.6,15.8,93,30.18,10.0,NNE,4.6,-,N/A,Snow,Light Snow,20,2013-03-24 12:54:00
8:14 AM,17.6,15.8,93,30.18,10.0,NNE,4.6,-,N/A,,Overcast,30,2013-03-24 13:14:00
8:35 AM,19.4,17.6,93,30.18,5.0,NNE,3.5,-,N/A,Snow,Light Snow,20,2013-03-24 13:35:00
8:54 AM,19.4,17.6,93,30.18,10.0,North,5.8,-,N/A,Snow,Light Snow,10,2013-03-24 13:54:00
9:15 AM,19.4,17.6,93,30.18,10.0,North,6.9,-,N/A,,Overcast,360,2013-03-24 14:15:00
9:35 AM,19.4,17.6,93,30.18,10.0,North,6.9,-,N/A,,Overcast,350,2013-03-24 14:35:00
9:54 AM,21.2,17.6,86,30.18,7.0,North,8.1,-,N/A,Snow,Light Snow,350,2013-03-24 14:54:00
10:15 AM,21.2,19.4,93,30.19,10.0,North,9.2,-,N/A,,Mostly Cloudy,350,2013-03-24 15:15:00
10:35 AM,21.2,19.4,93,30.19,10.0,North,9.2,-,N/A,Snow,Light Snow,10,2013-03-24 15:35:00
10:54 AM,21.2,19.4,93,30.19,5.0,North,8.1,-,N/A,Snow,Light Snow,360,2013-03-24 15:54:00
11:15 AM,23.0,19.4,86,30.18,10.0,North,10.4,-,N/A,Snow,Light Snow,360,2013-03-24 16:15:00
11:34 AM,23.0,19.4,86,30.18,10.0,North,9.2,-,N/A,,Overcast,10,2013-03-24 16:34:00
11:54 AM,24.8,21.2,86,30.18,10.0,North,9.2,-,N/A,,Overcast,360,2013-03-24 16:54:00
12:15 PM,24.8,21.2,86,30.18,10.0,North,9.2,-,N/A,,Overcast,360,2013-03-24 17:15:00
12:35 PM,24.8,21.2,86,30.18,10.0,North,10.4,-,N/A,,Overcast,350,2013-03-24 17:35:00
12:54 PM,24.8,21.2,86,30.18,10.0,North,11.5,-,N/A,,Scattered Clouds,350,2013-03-24 17:54:00
1:15 PM,26.6,21.2,80,30.18,10.0,North,11.5,-,N/A,,Clear,350,2013-03-24 18:15:00
1:34 PM,26.6,23.0,86,30.17,10.0,North,12.7,-,N/A,,Mostly Cloudy,350,2013-03-24 18:34:00
1:54 PM,26.6,23.0,86,30.17,10.0,NNW,13.8,-,N/A,,Overcast,340,2013-03-24 18:54:00
2:15 PM,26.6,23.0,86,30.17,10.0,North,15.0,-,N/A,,Scattered Clouds,350,2013-03-24 19:15:00
2:34 PM,24.8,21.2,86,30.17,10.0,NNW,15.0,-,N/A,,Mostly Cloudy,340,2013-03-24 19:34:00
2:54 PM,24.8,21.2,86,30.17,10.0,North,17.3,-,N/A,,Overcast,350,2013-03-24 19:54:00
3:15 PM,24.8,21.2,86,30.17,10.0,North,18.4,-,N/A,,Overcast,350,2013-03-24 20:15:00
3:34 PM,24.8,21.2,86,30.17,10.0,North,19.6,-,N/A,,Overcast,350,2013-03-24 20:34:00
3:54 PM,24.8,21.2,86,30.17,10.0,North,17.3,-,N/A,,Overcast,350,2013-03-24 20:54:00
4:15 PM,24.8,21.2,86,30.17,10.0,North,18.4,-,N/A,,Mostly Cloudy,350,2013-03-24 21:15:00
4:34 PM,24.8,21.2,86,30.17,10.0,North,18.4,-,N/A,,Scattered Clouds,350,2013-03-24 21:34:00
4:54 PM,24.8,21.2,86,30.18,10.0,North,20.7,-,N/A,,Clear,350,2013-03-24 21:54:00
5:15 PM,24.8,21.2,86,30.18,10.0,North,18.4,-,N/A,,Mostly Cloudy,350,2013-03-24 22:15:00
5:34 PM,24.8,21.2,86,30.18,10.0,North,20.7,-,N/A,,Overcast,350,2013-03-24 22:34:00
5:54 PM,24.8,21.2,86,30.19,10.0,North,19.6,-,N/A,,Overcast,350,2013-03-24 22:54:00
6:14 PM,24.8,21.2,86,30.19,10.0,North,18.4,-,N/A,,Overcast,350,2013-03-24 23:14:00
6:34 PM,24.8,21.2,86,30.19,10.0,North,19.6,-,N/A,Snow,Light Snow,360,2013-03-24 23:34:00
6:55 PM,24.8,21.2,86,30.20,10.0,North,19.6,-,N/A,,Overcast,360,2013-03-24 23:55:00
7:14 PM,24.8,21.2,86,30.20,10.0,North,17.3,-,N/A,,Overcast,350,2013-03-25 00:14:00
7:34 PM,24.8,21.2,86,30.20,10.0,North,17.3,-,N/A,,Overcast,350,2013-03-25 00:34:00
7:55 PM,24.8,21.2,86,30.20,10.0,North,17.3,-,N/A,Snow,Light Snow,350,2013-03-25 00:55:00
8:14 PM,24.8,21.2,86,30.20,10.0,North,17.3,-,N/A,,Overcast,350,2013-03-25 01:14:00
8:34 PM,24.8,21.2,86,30.21,10.0,North,18.4,-,N/A,,Overcast,350,2013-03-25 01:34:00
8:55 PM,24.8,21.2,86,30.21,10.0,North,18.4,-,N/A,,Overcast,350,2013-03-25 01:55:00
9:14 PM,23.0,21.2,93,30.22,10.0,North,16.1,-,N/A,Snow,Light Snow,350,2013-03-25 02:14:00
9:34 PM,23.0,21.2,93,30.22,10.0,North,17.3,-,N/A,,Overcast,350,2013-03-25 02:34:00
9:55 PM,23.0,21.2,93,30.22,10.0,North,16.1,-,N/A,,Overcast,350,2013-03-25 02:55:00
10:14 PM,23.0,19.4,86,30.22,10.0,North,16.1,-,N/A,,Overcast,350,2013-03-25 03:14:00
10:35 PM,23.0,19.4,86,30.22,10.0,North,15.0,-,N/A,Snow,Light Snow,360,2013-03-25 03:35:00
10:55 PM,23.0,19.4,86,30.22,10.0,North,15.0,-,N/A,,Overcast,350,2013-03-25 03:55:00
11:14 PM,21.2,19.4,93,30.23,10.0,North,15.0,-,N/A,,Overcast,360,2013-03-25 04:14:00
11:35 PM,21.2,19.4,93,30.23,10.0,North,16.1,-,N/A,Snow,Light Snow,350,2013-03-25 04:35:00
11:55 PM,21.2,19.4,93,30.23,10.0,North,13.8,-,N/A,Snow,Light Snow,360,2013-03-25 04:55:00